Columbia Owens, SC

9:55 AM EST on November 15, 2019 (GMT -0500)
Columbia Owens Downtown

Weather History for KCUB - September, 2019

Change the Weather History Date:

Monday, September 23, 2019

  Actual Average Record
Temperature  
Mean Temperature 78 °F 74 °F  
Max Temperature 92 °F 84 °F 96 °F (2007)
Min Temperature 63 °F 64 °F 46 °F (1999)
Degree Days  
Heating Degree Days 0 0  
Month to date heating degree days 0 0  
Since 1 July heating degree days 0 0  
Cooling Degree Days 13 9  
Month to date cooling degree days 377 275  
Year to date cooling degree days 2500 2093  
Growing Degree Days 27 (Base 50)    
Moisture  
Dew Point 58 °F    
Average Humidity 59    
Maximum Humidity 93    
Minimum Humidity 26    
Precipitation  
Precipitation 0.00 in 0.10 in 3.15 in (2011)
Month to date precipitation 0.79 3.18  
Year to date precipitation 23.97 35.03  
Sea Level Pressure  
Sea Level Pressure 30.04 in    
Wind  
Wind Speed 2 mph (West)    
Max Wind Speed 13 mph    
Max Gust Speed 17 mph    
Visibility 10 miles    
Events      
T = Trace of Precipitation, MM = Missing Value Source: NWS Daily Summary

Daily Weather History Graph

Daily Weather History Graph

Search for Another Location

Airport or City:

Astronomy

Sep. 23, 2019 Rise Set
Actual Time 7:12 AM EDT 7:19 PM EDT
Civil Twilight 6:47 AM EDT 7:44 PM EDT
Nautical Twilight 6:18 AM EDT 8:13 PM EDT
Astronomical Twilight 5:49 AM EDT 8:43 PM EDT
Moon 1:11 AM EDT (9/23) 3:54 PM EDT (9/23)
Length of Visible Light 12h 56m
Length of Day
12h 07m
Waning Crescent, 33% of the Moon is Illuminated
Sep 23
Waning Crescent
Sep 28
New
Oct 5
First Quarter
Oct 13
Full
Oct 21
Last Quarter

Hourly Weather History & Observations

Time (EDT) Temp. Heat Index Dew Point Humidity Pressure Visibility Wind Dir Wind Speed Gust Speed Precip Events Conditions
12:53 AM 68.0 °F - 60.1 °F 76% 30.13 in 10.0 mi Calm Calm - N/A   Clear
1:53 AM 66.9 °F - 60.1 °F 79% 30.13 in 10.0 mi Calm Calm - N/A   Clear
2:53 AM 66.0 °F - 60.1 °F 81% 30.11 in 10.0 mi Calm Calm - N/A   Clear
3:53 AM 64.9 °F - 60.1 °F 84% 30.10 in 10.0 mi Calm Calm - N/A   Clear
4:53 AM 64.0 °F - 60.1 °F 87% 30.09 in 10.0 mi Calm Calm - N/A   Clear
5:53 AM 63.0 °F - 60.1 °F 90% 30.10 in 10.0 mi Calm Calm - N/A   Clear
6:53 AM 63.0 °F - 60.1 °F 90% 30.11 in 10.0 mi Calm Calm - N/A   Clear
7:53 AM 64.0 °F - 60.1 °F 87% 30.11 in 10.0 mi Calm Calm - N/A   Clear
8:53 AM - - - N/A% 30.12 in 10.0 mi Calm Calm - N/A   Clear
9:53 AM - - - N/A% 30.12 in 10.0 mi Calm Calm - N/A   Clear
10:53 AM - - - N/A% 30.11 in 10.0 mi SSW 3.5 mph - N/A   Clear
11:53 AM - - - N/A% 30.09 in 10.0 mi Calm Calm - N/A   Clear
12:53 PM 88.0 °F 86.9 °F 57.9 °F 36% 30.05 in 10.0 mi Variable 5.8 mph - N/A   Clear
1:53 PM 89.1 °F 87.7 °F 57.0 °F 34% 30.02 in 10.0 mi SSW 8.1 mph - N/A   Clear
2:53 PM 91.0 °F 88.9 °F 55.0 °F 29% 29.99 in 10.0 mi Variable 5.8 mph - N/A   Clear
3:53 PM 91.0 °F 88.9 °F 55.0 °F 29% 29.97 in 10.0 mi Variable 4.6 mph - N/A   Clear
4:53 PM 91.0 °F 88.7 °F 54.0 °F 28% 29.96 in 10.0 mi West 8.1 mph - N/A   Clear
5:53 PM 91.0 °F - 52.0 °F 26% 29.96 in 10.0 mi NW 6.9 mph - N/A   Clear
6:53 PM 89.1 °F 86.7 °F 53.1 °F 29% 29.95 in 10.0 mi West 5.8 mph - N/A   Clear
7:53 PM 81.0 °F 81.0 °F 57.0 °F 44% 29.95 in 10.0 mi Calm Calm - N/A   Clear
8:53 PM 75.9 °F - 57.9 °F 54% 29.96 in 10.0 mi Calm Calm - N/A   Clear
9:53 PM 75.0 °F - 60.1 °F 60% 29.96 in 10.0 mi Calm Calm - N/A   Clear
10:53 PM 73.9 °F - 62.1 °F 66% 29.96 in 10.0 mi Calm Calm - N/A   Clear
11:53 PM 73.0 °F - 62.1 °F 68% 29.96 in 10.0 mi Calm Calm - N/A   Clear